Weather History for Bournemouth, United Kingdom

Change the Weather History Date:

Monday, November 26, 2012

  Actual Average Record
Temperature  
Mean Temperature 46 °F -  
Max Temperature 49 °F 48 °F 57 °F (2004)
Min Temperature 42 °F 35 °F 23 °F (2010)
Degree Days  
Heating Degree Days 20    
Moisture  
Dew Point 43 °F    
Average Humidity 92    
Maximum Humidity 100    
Minimum Humidity 81    
Precipitation  
Precipitation 0.20 in 0.12 in - ()
Sea Level Pressure  
Sea Level Pressure 29.47 in    
Wind  
Wind Speed 6 mph ()    
Max Wind Speed 14 mph    
Max Gust Speed -    
Visibility 6.8 miles    
Events Rain    
Averages and records for this station are not official NWS values.
T = Trace of Precipitation, MM = Missing Value Source: Averaged Metar Reports

Daily Weather History Graph

Daily Weather History Graph

Search for Another Location

Airport:

Trip Planner

Search our weather history database for the weather conditions in past years. The results will help you decide how hot, cold, wet, or windy it might be!

Date:

Astronomy

Nov. 26, 2012 Rise Set
Actual Time 7:40 AM GMT 4:08 PM GMT
Civil Twilight 7:03 AM GMT 4:46 PM GMT
Nautical Twilight 6:21 AM GMT 5:27 PM GMT
Astronomical Twilight 5:42 AM GMT 6:06 PM GMT
Moon 2:58 PM GMT (11/26) 5:28 AM GMT (11/26)
Length of Visible Light 9h 43m
Length of Day
8h 27m
Waxing Gibbous, 96% of the Moon is Illuminated
Nov 26
Waxing Gibbous
Nov 28
Full
Dec 6
Last Quarter
Dec 13
New
Dec 20
First Quarter

Hourly Weather History & Observations

Time (GMT) Temp. Windchill Dew Point Humidity Pressure Visibility Wind Dir Wind Speed Gust Speed Precip Events Conditions
2:50 AM 47 °F - 44 °F 84% 29.47 in 12 mi South 3.5 mph - - Rain Rain
3:20 AM 48.2 °F - 44.6 °F 87% 29.44 in 6.2 mi SSE 6.9 mph - N/A Rain Rain
3:50 AM 48.2 °F - 44.6 °F 87% 29.44 in 6.2 mi SSW 4.6 mph - N/A Rain Light Rain
4:50 AM 46.4 °F 43.5 °F 44.6 °F 93% 29.42 in 4.3 mi NW 5.8 mph - N/A Rain Rain
5:20 AM 44.6 °F 41.4 °F 44.6 °F 100% 29.42 in 4.3 mi North 5.8 mph - N/A Rain Rain
5:50 AM 45 °F - 44 °F 92% 29.42 in 6 mi ENE 6.9 mph - - Rain Light Rain
5:50 AM 44.6 °F 40.7 °F 42.8 °F 93% 29.42 in 5.0 mi ENE 6.9 mph - N/A Rain Light Rain
6:20 AM 44.6 °F 40.7 °F 44.6 °F 100% 29.42 in 6.2 mi ENE 6.9 mph - N/A   Scattered Clouds
6:50 AM 44.6 °F 41.4 °F 42.8 °F 93% 29.42 in 6.2 mi ENE 5.8 mph - N/A   Partly Cloudy
7:20 AM 42.8 °F 39.3 °F 42.8 °F 100% 29.42 in 6.2 mi East 5.8 mph - N/A   Partly Cloudy
7:50 AM 42.8 °F 40.1 °F 41.0 °F 93% 29.42 in 6.2 mi East 4.6 mph - N/A   Scattered Clouds
8:20 AM 42.8 °F 40.1 °F 42.8 °F 100% 29.42 in 6.2 mi ENE 4.6 mph - N/A   Scattered Clouds
8:50 AM 44 °F - 44 °F 97% 29.43 in 4 mi East 4.6 mph - - Rain Rain Showers
8:50 AM 44.6 °F 43.1 °F 42.8 °F 93% 29.42 in 6.2 mi SE 3.5 mph - N/A Rain Light Rain Showers
9:20 AM 44.6 °F 40.2 °F 44.6 °F 100% 29.42 in 6.2 mi ENE 8.1 mph - N/A Rain Light Rain Showers
9:50 AM 44.6 °F 40.7 °F 44.6 °F 100% 29.42 in 5.0 mi East 6.9 mph - N/A Rain Light Rain
10:20 AM 46.4 °F 43.5 °F 44.6 °F 93% 29.42 in 5.0 mi ENE 5.8 mph - N/A Rain Light Rain
10:50 AM 46.4 °F 44.3 °F 44.6 °F 93% 29.42 in 6.2 mi North 4.6 mph - N/A Rain Light Rain
11:20 AM 46.4 °F 43.5 °F 44.6 °F 93% 29.42 in 4.3 mi NNW 5.8 mph - N/A Rain Light Rain
11:50 AM 46 °F - 46 °F 97% 29.45 in 7 mi NNW 5.8 mph - - Rain Light Rain
11:50 AM 46.4 °F 43.5 °F 46.4 °F 100% 29.44 in 6.2 mi NNW 5.8 mph - N/A Rain Light Rain
12:20 PM 46.4 °F 43.5 °F 44.6 °F 93% 29.44 in 6.2 mi WNW 5.8 mph - N/A   Scattered Clouds
12:50 PM 48.2 °F - 46.4 °F 93% 29.44 in 6.2 mi NW 5.8 mph - N/A   Scattered Clouds
1:20 PM 48.2 °F - 44.6 °F 87% 29.44 in 6.2 mi NW 10.4 mph - N/A   Scattered Clouds
1:50 PM 48.2 °F - 44.6 °F 87% 29.44 in 6.2 mi NW 9.2 mph - N/A   Scattered Clouds
2:20 PM 48.2 °F - 44.6 °F 87% 29.44 in 6.2 mi WNW 10.4 mph - N/A   Mostly Cloudy
2:50 PM 48 °F - 44 °F 81% 29.48 in 12 mi NNW 8.1 mph - -   Mostly Cloudy
2:50 PM 48.2 °F - 44.6 °F 87% 29.47 in 6.2 mi NNW 9.2 mph - N/A   Mostly Cloudy
3:20 PM 48.2 °F - 44.6 °F 87% 29.47 in 6.2 mi NW 9.2 mph - N/A   Mostly Cloudy
3:50 PM 46.4 °F 42.4 °F 44.6 °F 93% 29.47 in 6.2 mi NW 8.1 mph - N/A   Mostly Cloudy
4:20 PM 46.4 °F 42.9 °F 42.8 °F 87% 29.50 in 6.2 mi NW 6.9 mph - N/A   Mostly Cloudy
4:50 PM 44.6 °F 40.7 °F 42.8 °F 93% 29.50 in 6.2 mi NW 6.9 mph - N/A   Mostly Cloudy
5:20 PM 44.6 °F 40.2 °F 42.8 °F 93% 29.50 in 6.2 mi WNW 8.1 mph - N/A   Mostly Cloudy
5:50 PM 42 °F - 40 °F 91%  in 10 mi WNW 5.8 mph - -   Scattered Clouds
6:20 PM 42.8 °F 38.0 °F 41.0 °F 93% 29.53 in 6.2 mi WNW 8.1 mph - N/A   Mostly Cloudy
6:50 PM 44.6 °F 40.2 °F 42.8 °F 93% 29.53 in 6.2 mi WNW 8.1 mph - N/A   Mostly Cloudy
7:20 PM 44.6 °F 38.8 °F 42.8 °F 93% 29.53 in 6.2 mi WNW 11.5 mph - N/A   Mostly Cloudy
7:50 PM 44.6 °F 39.2 °F 42.8 °F 93% 29.53 in 6.2 mi NNW 10.4 mph - N/A   Mostly Cloudy
8:20 PM 44.6 °F 40.7 °F 41.0 °F 87% 29.56 in 6.2 mi NW 6.9 mph - N/A   Mostly Cloudy
8:50 PM 44 °F - 41 °F 87% 29.57 in 14 mi NW 6.9 mph - - Rain Rain
8:50 PM 44.6 °F 41.4 °F 41.0 °F 87% 29.56 in 6.2 mi NW 5.8 mph - N/A   Mostly Cloudy
9:50 PM 42.8 °F 37.0 °F 39.2 °F 87% 29.56 in 6.2 mi NW 10.4 mph - N/A   Scattered Clouds
10:20 PM 42.8 °F 35.8 °F 39.2 °F 87% 29.56 in 6.2 mi WNW 13.8 mph - N/A   Scattered Clouds
11:20 PM 42.8 °F 38.0 °F 39.2 °F 87% 29.56 in 6.2 mi NW 8.1 mph - N/A   Mostly Cloudy
11:50 PM 43 °F - 40 °F 86% 29.57 in 19 mi NW 5.8 mph - - Rain Rain